SL-14 R/B, 18821

Orbit data source: Space-Track

SL-14 R/B, 18821 is space debris in LEO originally from a launch on Sat, 30 Jan 1988 UTC launched from the Plesetsk Missile And Space Complex (PKMTR). Debris objects in space refer to the collection of defunct objects orbiting the Earth. Examples of debris include non-operational satellites, rocket bodies, and fragments generated from explosions, collisions, or faulty payload assembly.

Loading next visibility...
Identifier
18821, 1988-005B
Orbit
LEO
Country
Flag of CISCIS
Related business
Manufacturer
Yuzhnoe
Mission
Spacecraft
Bus & Motor
S5M, Unknown motor
Mass
1,600 kg wet, 1,600 kg dry
Launch date (UTC)
1988-01-30 (38 years ago)
Launch vehicle
Unknown
Launch site
Plesetsk Missile And Space Complex (PKMTR)
Object type
Payload
Rocket body
Debris
Shape & HBR
Cyl, 1.4 m
Radar Cross Section
7.351 m², Large (>1 m²)

Expand to show TLE details & history
Last TLE update: 10 hours ago

TLE from 10 hours ago
0 SL-14 R/B
1 18821U 88005B   25352.47423999  .00000016  00000-0  11648-5 0  9997
2 18821  82.5429 109.4387 0013292 239.1692 120.8161 13.85217076915018
Epoch: 2025-12-18T11:22Z
TLE epoch observation values (Epoch: 2025-12-18T11:22:54.335Z)
Latitude
-0.00005°
Longitude
-148.61693°
Altitude
953.341 km
Speed
7.373 km/s
True Right ascension
07h 17m 45s
True Declination
0° 00' 00"
Sunlit
Object was in full shadow at epoch
Visualization orbit readout
Latitude
Unknown
Longitude
Unknown
Altitude
Unknown
Speed
Unknown
Apparent Right ascension
Unknown
Apparent Declination
Unknown
Sunlit
N/A
Visualization observer readout
Local Sidereal Time
20:38:04
Azimuth
Unknown
Elevation
Unknown
Doppler factor
Unknown
Orbital elements
Apogee altitude
952.322 km
Perigee altitude
932.86 km
Semi-major axis
7,320.728 km
Eccentricity
0.00133
Inclination
82.5429°
RAAN
109.4387°
Arg. of periapsis
239.1692°
True anomaly
120.9468°
Mean anomaly
120.8161°
Eccentric anomaly
120.88146°
Mean motion
3.46507 °/min
Orbital period
103.89 mins
BSTAR
0.0000011648
Loading maneuver chart data...
Computing Atmospheric mass density...
Loading historical data...
Loading historical data...
Loading historical data...
Loading historical data...
Loading historical data...
Loading historical data...
Loading historical data...

Documentation

Showing up to 5 results
|